Orbital Elements at Epoch 2459200.5 (2020-Dec-17.0) TDB
Reference: JPL 21 (heliocentric ecliptic J2000)
Element | Value | Uncertainty (1-sigma) | Units |
e | .05820002693671547 | 3.4484e-08 | |
a | 2.717852615775206 | 1.2639e-08 | au |
q | 2.559673520327066 | 9.8278e-08 | au |
i | 3.686751540679779 | 3.3879e-06 | deg |
node | 152.353583860413 | 6.5411e-05 | deg |
peri | 303.57437393 | 7.53e-05 | deg |
M | 316.2085596217981 | 3.8134e-05 | deg |
tp | 2459399.578339330339 (2021-Jul-04.07833933) | 0.00017338 | TDB |
period | 1636.580152193311 4.48 | 1.1416e-05 3.126e-08 | d yr |
n | .2199708945006668 | 1.5344e-09 | deg/d |
Q | 2.876031711223345 | 1.3374e-08 | au |
|
| | Orbit Determination Parameters
Additional Information
|